sat.trackr.live / text

‹ back to catalog

STARLINK-11434 [DTC]

NORAD 62420 · 2024-249M

PAYLOAD ACTIVE UNKNOWN

§ Identity

Operator
Country
US
Launch date
2024-12-23
Launch site
AFETR
Launch vehicle
Mass (kg)
RCS (m²)

Purposes: comms

External: N2YO · Heavens-Above · Gunter

§ Orbital elements

Epoch: 2026-09-21T21:07:03.631296Z

Period
91.67 min
Inclination
43.0007°
Eccentricity
0.0001928
Mean motion
15.70919111 rev/d
Perigee alt
355.0 km
Apogee alt
357.6 km
Semi-major
6,734.4 km
B*
6.4812e-4
RAAN
65.3000°
Arg perigee
259.1970°
Mean anomaly
100.8681°
Rev number
10,033

§ Raw data

STARLINK-11434 [DTC]1 62420U 24249M   26264.87990314  .00083838  00000+0  64812-3 0  99992 62420  43.0007  65.3000 0001928 259.1970 100.8681 15.70919111100333

JSON: /api/v1/satellites/62420 · /tle

For live sub-satellite position, see the globe view (requires WebGL).

§ Visibility from observer

Set your observer location to see the next 7 days of passes ≥ 10°. The values pass through the URL so the page stays shareable.

No JS? Fill the form by hand. The geolocation button needs JavaScript.